Regional Weather Roundup
Issued by NWS Cleveland, OH

Home | Current Version | Previous Version | Text Only | Print | Product List | Glossary Off
Versions: 1 2 3 4 5 6 7 8 9 10 11 12 13 14 15 16 17 18 19 20 21 22 23 24 25 26 27 28 29 30 31 32 33 34 35 36 37 38 39 40 41 42 43 44 45 46 47 48 49 50

000
ASUS41 KCLE 200210
RWRCLE
OHIO REGIONAL WEATHER ROUNDUP
NATIONAL WEATHER SERVICE WILMINGTON, OH
900 PM EST FRI DEC 19 2014

NOTE: "FAIR" INDICATES FEW OR NO CLOUDS BELOW 12,000 FEET WITH NO
SIGNIFICANT WEATHER AND/OR OBSTRUCTIONS TO VISIBILITY.

OHZ001>008-015>018-024>027-034-035-043-044-200300-
   NORTHWEST OHIO

CITY           SKY/WX    TMP DP  RH WIND       PRES   REMARKS
DEFIANCE       MOCLDY    24  20  84 CALM      30.29S
FINDLAY        CLOUDY    31  22  69 S3        30.27F
TOLEDO EXPRESS CLOUDY    30  23  75 NE3       30.28F
TOLEDO METCALF CLOUDY    30  24  78 E5        30.29F WCI  25
LIMA           CLOUDY    31  21  66 CALM      30.27S
$$

OHZ009>014-019>023-028>033-038-089-200300-
   NORTHEAST OHIO

CITY           SKY/WX    TMP DP  RH WIND       PRES   REMARKS
CLE-HOPKINS    CLOUDY    29  21  72 W6        30.33F WCI  23
CLE-LAKEFRONT  CLOUDY    31  21  66 W8        30.31F WCI  23
CUY CO. ARPT   CLOUDY    32  23  69 NW12      30.30F WCI  23
LORAIN-ELYRIA  CLOUDY    29  23  78 NE6       30.30F WCI  23
ASHTABULA      CLOUDY    29  21  72 W6        30.30S WCI  23
AKRON-CANTON   CLOUDY    29  22  75 NW5       30.28S WCI  24
WOOSTER        CLOUDY    29  22  75 N3        30.28F
MANSFIELD      CLOUDY    28  21  75 NW3       30.26F
YOUNGSTOWN     CLOUDY    28  21  75 NW7       30.28R WCI  21
$$

OHZ042-051>053-060>062-070>072-077>081-200300-
  SOUTHWEST OHIO

CITY           SKY/WX    TMP DP  RH WIND       PRES   REMARKS
CINC-COVINGTON CLOUDY    30  20  66 CALM      30.28F
CINC-LUNKEN    CLOUDY    31  22  69 CALM      30.32S
HAMILTON       CLOUDY    31  24  75 CALM      30.31S
DAYTON         CLOUDY    30  22  72 SW3       30.29R
WRIGHT-PAT AFB CLOUDY    30  22  70 CALM      30.29S
DAYTON GENERAL CLOUDY    30  22  72 CALM      30.28R
WILMINGTON     CLOUDY    29  21  72 E6        30.27F WCI  23
$$

OHZ036-037-039>041-045>050-054>059-063>069-073>076-082>088-200300-
  CENTRAL AND SOUTHEAST OHIO

CITY           SKY/WX    TMP DP  RH WIND       PRES   REMARKS
COLUMBUS       CLOUDY    30  22  72 N5        30.28F WCI  25
OSU AIRPORT    CLOUDY    30  23  75 CALM      30.28F
BOLTON FIELD   CLOUDY    30  24  78 MISG      30.28F
RICKENBACK AFB CLOUDY    30  24  78 CALM      30.28F
NEWARK         CLOUDY    30  23  75 NE5       30.28F WCI  25
MARION         CLOUDY    29  22  75 NW3       30.28F
LANCASTER      CLOUDY    34  23  64 N3        30.29F
ZANESVILLE     CLOUDY    30  22  72 CALM      30.28F
NEW PHILLY     CLOUDY    31  22  69 N5        30.29F WCI  26
$$


USA.gov is the U.S. government's official web portal to all federal, state and local government web resources and services.